Weather History for KYKN - October, 2013

Change the Weather History Date:

Wednesday, October 2, 2013

  Actual Average Record
Temperature  
Mean Temperature 63 °F -  
Max Temperature 78 °F 73 °F 94 °F (1951)
Min Temperature 48 °F 42 °F 25 °F (1974)
Degree Days  
Heating Degree Days 2    
Growing Degree Days 13 (Base 50)    
Moisture  
Dew Point 52 °F    
Average Humidity 66    
Maximum Humidity 88    
Minimum Humidity 54    
Precipitation  
Precipitation 0.00 in - - ()
Sea Level Pressure  
Sea Level Pressure 29.88 in    
Wind  
Wind Speed 7 mph (SE)    
Max Wind Speed 16 mph    
Max Gust Speed 22 mph    
Visibility 10 miles    
Events Thunderstorm    
Averages and records for this station are not official NWS values.
T = Trace of Precipitation, MM = Missing Value Source: NWS Daily Summary

Daily Weather History Graph

Daily Weather History Graph

Search for Another Location

Airport or City:

Trip Planner

Search our weather history database for the weather conditions in past years. The results will help you decide how hot, cold, wet, or windy it might be!

Date:

Astronomy

Oct. 02, 2013 Rise Set
Actual Time 7:28 AM CDT 7:08 PM CDT
Civil Twilight 6:59 AM CDT 7:36 PM CDT
Nautical Twilight 6:27 AM CDT 8:09 PM CDT
Astronomical Twilight 5:53 AM CDT 8:42 PM CDT
Moon 4:59 AM CDT (10/2) 5:47 PM CDT (10/2)
Length of Visible Light 12h 36m
Length of Day
11h 40m
Waning Crescent, 6% of the Moon is Illuminated
Oct 2
Waning Crescent
Oct 4
New
Oct 11
First Quarter
Oct 18
Full
Oct 26
Last Quarter

Hourly Weather History & Observations

Time (CDT) Temp. Dew Point Humidity Pressure Visibility Wind Dir Wind Speed Gust Speed Precip Events Conditions
12:15 AM 48.2 °F 39.2 °F 71% 29.97 in 10.0 mi North 3.5 mph - N/A   Clear
12:35 AM 48.2 °F 39.2 °F 71% 29.98 in 10.0 mi North 4.6 mph - N/A   Clear
12:55 AM 48.2 °F 39.2 °F 71% 29.98 in 10.0 mi NNE 3.5 mph - N/A   Clear
1:15 AM 48.2 °F 39.2 °F 71% 29.98 in 10.0 mi NNE 3.5 mph - N/A   Clear
1:35 AM 48.2 °F 37.4 °F 66% 29.98 in 10.0 mi NE 3.5 mph - N/A   Clear
1:55 AM 50.0 °F 37.4 °F 62% 29.98 in 10.0 mi NE 3.5 mph - N/A   Clear
2:15 AM 51.8 °F 37.4 °F 58% 29.98 in 10.0 mi NE 3.5 mph - N/A   Clear
2:35 AM 51.8 °F 35.6 °F 54% 29.98 in 10.0 mi ENE 5.8 mph - N/A   Clear
2:55 AM 51.8 °F 35.6 °F 54% 29.98 in 10.0 mi ENE 4.6 mph - N/A   Clear
3:15 AM 51.8 °F 35.6 °F 54% 29.97 in 10.0 mi ENE 5.8 mph - N/A   Clear
3:35 AM 51.8 °F 37.4 °F 58% 29.97 in 10.0 mi East 8.1 mph - N/A   Clear
3:55 AM 50.0 °F 37.4 °F 62% 29.96 in 10.0 mi East 5.8 mph - N/A   Clear
4:15 AM 50.0 °F 37.4 °F 62% 29.96 in 10.0 mi East 4.6 mph - N/A   Clear
4:35 AM 50.0 °F 37.4 °F 62% 29.95 in 10.0 mi East 4.6 mph - N/A   Clear
4:55 AM 48.2 °F 37.4 °F 66% 29.95 in 10.0 mi ENE 5.8 mph - N/A   Clear
5:15 AM 48.2 °F 37.4 °F 66% 29.94 in 10.0 mi East 5.8 mph - N/A   Partly Cloudy
5:35 AM 48.2 °F 37.4 °F 66% 29.94 in 10.0 mi ENE 4.6 mph - N/A   Partly Cloudy
5:55 AM 48.2 °F 37.4 °F 66% 29.94 in 10.0 mi East 5.8 mph - N/A   Mostly Cloudy
6:15 AM 48.2 °F 39.2 °F 71% 29.93 in 10.0 mi East 4.6 mph - N/A   Scattered Clouds
6:35 AM 50.0 °F 39.2 °F 66% 29.93 in 10.0 mi East 5.8 mph - N/A   Partly Cloudy
6:55 AM 50.0 °F 39.2 °F 66% 29.92 in 10.0 mi East 6.9 mph - N/A   Partly Cloudy
7:15 AM 51.8 °F 39.2 °F 62% 29.92 in 10.0 mi East 6.9 mph - N/A   Partly Cloudy
7:35 AM 51.8 °F 41.0 °F 67% 29.92 in 10.0 mi East 8.1 mph - N/A   Partly Cloudy
7:55 AM 51.8 °F 41.0 °F 67% 29.92 in 10.0 mi ESE 6.9 mph - N/A   Scattered Clouds
8:15 AM 51.8 °F 41.0 °F 67% 29.92 in 10.0 mi East 6.9 mph - N/A   Partly Cloudy
8:35 AM 51.8 °F 41.0 °F 67% 29.91 in 10.0 mi East 6.9 mph - N/A   Clear
8:55 AM 53.6 °F 42.8 °F 67% 29.91 in 10.0 mi East 8.1 mph - N/A   Clear
9:15 AM 55.4 °F 44.6 °F 67% 29.91 in 10.0 mi ESE 5.8 mph - N/A   Clear
9:35 AM 57.2 °F 44.6 °F 63% 29.91 in 10.0 mi East 6.9 mph - N/A   Clear
9:55 AM 60.8 °F 46.4 °F 59% 29.91 in 10.0 mi East 9.2 mph - N/A   Clear
10:15 AM 62.6 °F 48.2 °F 59% 29.90 in 10.0 mi ESE 10.4 mph - N/A   Clear
10:35 AM 64.4 °F 50.0 °F 59% 29.90 in 10.0 mi East 8.1 mph - N/A   Clear
10:55 AM 69.8 °F 53.6 °F 56% 29.89 in 10.0 mi SE 11.5 mph - N/A   Clear
11:15 AM 71.6 °F 57.2 °F 60% 29.88 in 10.0 mi SE 11.5 mph - N/A   Partly Cloudy
11:35 AM 71.6 °F 59.0 °F 64% 29.88 in 10.0 mi SE 11.5 mph - N/A   Scattered Clouds
11:55 AM 73.4 °F 59.0 °F 61% 29.88 in 10.0 mi SE 11.5 mph - N/A   Partly Cloudy
12:15 PM 75.2 °F 60.8 °F 61% 29.87 in 10.0 mi SE 13.8 mph 17.3 mph N/A   Scattered Clouds
12:35 PM 75.2 °F 60.8 °F 61% 29.87 in 10.0 mi SE 15.0 mph - N/A   Scattered Clouds
12:55 PM 75.2 °F 60.8 °F 61% 29.86 in 10.0 mi ESE 10.4 mph - N/A   Scattered Clouds
1:15 PM 78.8 °F 60.8 °F 54% 29.85 in 10.0 mi SSE 15.0 mph 20.7 mph N/A   Partly Cloudy
1:35 PM 78.8 °F 62.6 °F 57% 29.84 in 10.0 mi South 13.8 mph 18.4 mph N/A   Partly Cloudy
1:55 PM 77.0 °F 60.8 °F 57% 29.83 in 10.0 mi South 13.8 mph 19.6 mph N/A   Partly Cloudy
2:15 PM 78.8 °F 62.6 °F 57% 29.83 in 10.0 mi South 11.5 mph - N/A   Mostly Cloudy
2:35 PM 78.8 °F 62.6 °F 57% 29.82 in 10.0 mi SSE 16.1 mph 21.9 mph N/A   Mostly Cloudy
2:55 PM 77.0 °F 60.8 °F 57% 29.81 in 10.0 mi South 15.0 mph 20.7 mph N/A   Mostly Cloudy
3:15 PM 77.0 °F 62.6 °F 61% 29.81 in 10.0 mi South 15.0 mph - N/A Thunderstorm Overcast
3:35 PM 75.2 °F 64.4 °F 69% 29.81 in 9.0 mi South 4.6 mph - N/A   Mostly Cloudy
3:55 PM 77.0 °F 66.2 °F 69% 29.81 in 10.0 mi South 5.8 mph - N/A Thunderstorm Scattered Clouds
4:15 PM 78.8 °F 64.4 °F 61% 29.80 in 10.0 mi SSE 10.4 mph - N/A   Scattered Clouds
4:35 PM 78.8 °F 64.4 °F 61% 29.79 in 10.0 mi South 6.9 mph - N/A   Partly Cloudy
4:55 PM 78.8 °F 64.4 °F 61% 29.79 in 10.0 mi South 8.1 mph - N/A   Scattered Clouds
5:15 PM 78.8 °F 62.6 °F 57% 29.79 in 10.0 mi South 8.1 mph - N/A   Mostly Cloudy
5:35 PM 77.0 °F 62.6 °F 61% 29.79 in 10.0 mi South 6.9 mph - N/A   Mostly Cloudy
5:55 PM 75.2 °F 64.4 °F 69% 29.80 in 10.0 mi South 9.2 mph - N/A   Partly Cloudy
6:15 PM 75.2 °F 64.4 °F 69% 29.79 in 10.0 mi SSE 9.2 mph - N/A   Mostly Cloudy
6:35 PM 73.4 °F 64.4 °F 73% 29.80 in 10.0 mi South 10.4 mph - N/A   Scattered Clouds
6:55 PM 73.4 °F 62.6 °F 69% 29.78 in 10.0 mi South 6.9 mph - N/A   Clear
7:15 PM 71.6 °F 62.6 °F 73% 29.78 in 10.0 mi South 5.8 mph - N/A   Clear
7:35 PM 71.6 °F 60.8 °F 69% 29.78 in 10.0 mi South 6.9 mph - N/A   Clear
7:55 PM 71.6 °F 60.8 °F 69% 29.77 in 10.0 mi SSW 5.8 mph - N/A   Clear
8:15 PM 69.8 °F 62.6 °F 78% 29.81 in 10.0 mi NW 9.2 mph - N/A   Scattered Clouds
8:35 PM 68.0 °F 64.4 °F 88% 29.83 in 10.0 mi WNW 6.9 mph - N/A   Mostly Cloudy
8:55 PM 68.0 °F 62.6 °F 83% 29.84 in 10.0 mi North 9.2 mph - N/A   Partly Cloudy
9:15 PM 69.8 °F 62.6 °F 78% 29.85 in 10.0 mi North 6.9 mph - N/A   Scattered Clouds
9:35 PM 69.8 °F 62.6 °F 78% 29.84 in 10.0 mi SW 4.6 mph - N/A   Mostly Cloudy
9:55 PM 68.0 °F 62.6 °F 83% 29.82 in 10.0 mi WSW 6.9 mph - N/A   Scattered Clouds
10:15 PM 68.0 °F 60.8 °F 78% 29.81 in 10.0 mi West 5.8 mph - N/A   Clear
10:35 PM 66.2 °F 60.8 °F 83% 29.81 in 10.0 mi SSW 5.8 mph - N/A   Clear
10:55 PM 66.2 °F 60.8 °F 83% 29.81 in 10.0 mi SW 3.5 mph - N/A   Clear
11:15 PM 66.2 °F 60.8 °F 83% 29.81 in 10.0 mi WSW 6.9 mph - N/A   Clear
11:35 PM 66.2 °F 60.8 °F 83% 29.82 in 10.0 mi SSW 4.6 mph - N/A   Clear
11:55 PM 66.2 °F 59.0 °F 78% 29.81 in 10.0 mi NW 4.6 mph - N/A   Clear